Regional Weather Roundup
Issued by NWS Albany, NY

Home | Current Version | Previous Version | Graphics & Text | Print | Product List | Glossary Off
Versions: 1 2 3 4 5 6 7 8 9 10 11 12 13 14 15 16 17 18 19 20 21 22 23 24 25 26 27 28 29 30 31 32 33 34 35 36 37 38 39 40 41 42 43 44 45 46 47 48 49 50

000
ASUS41 KALY 221510
RWRALY

NEW YORK STATE HOURLY WEATHER ROUNDUP
NATIONAL WEATHER SERVICE ALBANY NY
1100 AM EDT MON SEP 22 2014

NOTE: "FAIR" INDICATES FEW OR NO CLOUDS BELOW 12,000 FEET WITH NO
SIGNIFICANT WEATHER AND/OR NO OBSTRUCTIONS TO VISIBILITY.

NYZ032-033-038>043-046>054-057>066-NYZ062>081-221600-
EAST


CITY           SKY/WX    TMP DP  RH WIND       PRES   REMARKS
ALBANY         PTSUNNY   60  45  57 W21G32    29.89R
GLENS FALLS    MOSUNNY   60  43  53 W13G22    29.84R
POUGHKEEPSIE   CLOUDY    68  47  46 W12G20    29.86R
NEWBURGH       MOSUNNY   64  50  59 NW18G30   29.90R
MONTGOMERY     CLOUDY    67  47  48 NW12G20   29.89R
WHITE PLAINS   MOSUNNY   67  49  52 NW20G32   29.86R
ISLIP          MOSUNNY   69  53  56 NW9G21    29.83R
NEW YORK CITY  CLOUDY    68  51  54 NW17G25   29.87R
CENTRAL PARK   MOSUNNY   68  48  48 VRB7G20   29.90R
$$

NYZ005>009-017-018-044>046-055-056-221600-
CENTRAL


CITY           SKY/WX    TMP DP  RH WIND       PRES   REMARKS
FULTON         CLOUDY    50  42  74 NW13      29.98R
SYRACUSE       CLOUDY    52  44  74 W20G26    29.97R
ROME           CLOUDY    53  45  74 W17G26    29.95R
ELMIRA         CLOUDY    55  44  66 VRB3G20   30.01R
BINGHAMTON     CLOUDY    48  46  93 NW12G20   29.97R
MONTICELLO     CLOUDY    55  48  76 W14G22    29.94R
$$

NYZ026>034-041>043-221600-
NORTH


CITY           SKY/WX    TMP DP  RH WIND       PRES   REMARKS
WATERTOWN      CLOUDY    51  38  60 W12       29.95R
FORT DRUM      NOT AVBL
MASSENA        CLOUDY    49  42  77 W13G21    29.88R
SARANAC LAKE   CLOUDY    45  42  89 W10       29.83R
PLATTSBURGH    MOSUNNY   55  42  61 W12G29    29.79R
$$

NYZ001>004-010>016-019>021-221600-
WEST


CITY           SKY/WX    TMP DP  RH WIND       PRES   REMARKS
NIAGARA FALLS  CLOUDY    50  40  68 NW13      30.06R
BUFFALO        CLOUDY    51  41  68 NW8       30.06R
DUNKIRK        CLOUDY    51  41  68 NW13      30.09R
JAMESTOWN      CLOUDY    46  39  76 NW14      30.08R
WELLSVILLE     CLOUDY    47  42  83 NW18G25   30.05R
ROCHESTER      PTSUNNY   52  38  58 NW16G33   30.02R
PENN YAN       CLOUDY    51  41  68 W7G17     30.02R
$$

             KEY
       WCI = WIND CHILL INDEX
       VSB = VISIBILITY
       HX  = HEAT INDEX
$$


USA.gov is the U.S. government's official web portal to all federal, state and local government web resources and services.